When you browse on this site, cookies collect data to enhance your experience and personalize the content and advertising you see.
Visit our Privacy Policy to learn more. By continuing to use the site, you agree to this use of cookies and data.
  • en France
  • Liste des pays
  • À 7 jours
  • Température de l'eau
  • Carte météo
  • Widgets météo
  • user-avatar
    Se connecter

    Météo par heure à Hoddesdon

    Ce jour, 26 Mai, Mardi

    Heure Température Précipitation Vent Pression Humidité
    00:00 +15°C° 0 mm 2 m/s 773 mmHg 87%
    01:00 +14°C° 0 mm 2 m/s 773 mmHg 87%
    02:00 +14°C° 0 mm 2 m/s 773 mmHg 86%
    03:00 +13°C° 0 mm 2 m/s 773 mmHg 86%
    04:00 +14°C° 0 mm 2 m/s 773 mmHg 83%
    05:00 +14°C° 0 mm 2 m/s 773 mmHg 80%
    06:00 +15°C° 0 mm 2 m/s 774 mmHg 79%
    07:00 +17°C° 0 mm 2 m/s 774 mmHg 72%
    08:00 +18°C° 0 mm 2 m/s 774 mmHg 66%
    09:00 +20°C° 0 mm 2 m/s 774 mmHg 59%
    10:00 +20°C° 0 mm 2 m/s 774 mmHg 56%
    11:00 +21°C° 0 mm 2 m/s 774 mmHg 53%
    12:00 +23°C° 0 mm 2 m/s 774 mmHg 50%
    13:00 +23°C° 0 mm 2 m/s 774 mmHg 50%
    14:00 +23°C° 0 mm 2 m/s 774 mmHg 51%
    15:00 +22°C° 0 mm 3 m/s 774 mmHg 52%
    16:00 +23°C° 0 mm 2 m/s 773 mmHg 57%
    17:00 +23°C° 0 mm 2 m/s 773 mmHg 63%
    18:00 +21°C° 0 mm 2 m/s 773 mmHg 68%
    19:00 +20°C° 0 mm 2 m/s 773 mmHg 72%
    20:00 +20°C° 0 mm 1 m/s 774 mmHg 76%
    21:00 +18°C° 0 mm 1 m/s 774 mmHg 80%
    22:00 +18°C° 0 mm 1 m/s 774 mmHg 83%
    23:00 +16°C° 0 mm 1 m/s 774 mmHg 85%

    Demain, 27 Mai, Mercredi

    Heure Température Précipitation Vent Pression Humidité
    00:00 +15°C° 0 mm 1 m/s 774 mmHg 88%
    01:00 +14°C° 0 mm 1 m/s 774 mmHg 88%
    02:00 +14°C° 0 mm 1 m/s 774 mmHg 89%
    03:00 +13°C° 0 mm 1 m/s 774 mmHg 89%
    04:00 +14°C° 0 mm 1 m/s 774 mmHg 87%
    05:00 +14°C° 0 mm 1 m/s 774 mmHg 86%
    06:00 +15°C° 0 mm 1 m/s 774 mmHg 84%
    07:00 +16°C° 0 mm 1 m/s 774 mmHg 79%
    08:00 +19°C° 0 mm 1 m/s 774 mmHg 74%
    09:00 +20°C° 0 mm 1 m/s 774 mmHg 69%
    10:00 +20°C° 0 mm 2 m/s 774 mmHg 66%
    11:00 +21°C° 0 mm 2 m/s 774 mmHg 63%
    12:00 +21°C° 0 mm 2 m/s 774 mmHg 60%
    13:00 +21°C° 0 mm 2 m/s 774 mmHg 59%
    14:00 +21°C° 0 mm 2 m/s 774 mmHg 58%
    15:00 +21°C° 0 mm 3 m/s 773 mmHg 57%
    16:00 +20°C° 0 mm 3 m/s 773 mmHg 63%
    17:00 +19°C° 0 mm 3 m/s 773 mmHg 68%
    18:00 +19°C° 0 mm 4 m/s 773 mmHg 73%
    19:00 +17°C° 0 mm 3 m/s 773 mmHg 77%
    20:00 +14°C° 0 mm 3 m/s 774 mmHg 81%
    21:00 +12°C° 0 mm 3 m/s 774 mmHg 85%
    22:00 +11°C° 0 mm 3 m/s 774 mmHg 86%
    23:00 +12°C° 0 mm 2 m/s 774 mmHg 86%

    Après-demain, 28 Mai, Jeudi

    Heure Température Précipitation Vent Pression Humidité
    00:00 +10°C° 0 mm 2 m/s 774 mmHg 86%
    01:00 +10°C° 0 mm 2 m/s 774 mmHg 87%
    02:00 +9°C° 0 mm 2 m/s 774 mmHg 87%
    03:00 +9°C° 0 mm 2 m/s 774 mmHg 87%
    04:00 +10°C° 0 mm 2 m/s 773 mmHg 84%
    05:00 +10°C° 0 mm 2 m/s 773 mmHg 81%
    06:00 +12°C° 0 mm 2 m/s 773 mmHg 79%
    07:00 +13°C° 0 mm 3 m/s 773 mmHg 72%
    08:00 +14°C° 0 mm 3 m/s 773 mmHg 65%
    09:00 +17°C° 0 mm 3 m/s 773 mmHg 58%
    10:00 +18°C° 0 mm 4 m/s 773 mmHg 57%
    11:00 +18°C° 0 mm 4 m/s 773 mmHg 55%
    12:00 +19°C° 0 mm 4 m/s 772 mmHg 53%
    13:00 +19°C° 0 mm 4 m/s 772 mmHg 53%
    14:00 +19°C° 0 mm 4 m/s 771 mmHg 54%
    15:00 +19°C° 0 mm 4 m/s 771 mmHg 54%
    16:00 +18°C° 0 mm 4 m/s 771 mmHg 57%
    17:00 +17°C° 0 mm 4 m/s 771 mmHg 59%
    18:00 +17°C° 0 mm 4 m/s 770 mmHg 62%
    19:00 +14°C° 0 mm 3 m/s 770 mmHg 67%
    20:00 +12°C° 0 mm 3 m/s 770 mmHg 72%
    21:00 +10°C° 0 mm 3 m/s 770 mmHg 77%
    22:00 +10°C° 0 mm 3 m/s 770 mmHg 78%
    23:00 +10°C° 0 mm 3 m/s 770 mmHg 80%

    29 Mai, Vendredi

    Heure Température Précipitation Vent Pression Humidité
    00:00 +9°C° 0 mm 3 m/s 770 mmHg 82%
    01:00 +9°C° 0 mm 2 m/s 770 mmHg 82%
    02:00 +9°C° 0 mm 2 m/s 769 mmHg 82%
    03:00 +9°C° 0 mm 2 m/s 769 mmHg 82%
    04:00 +10°C° 0 mm 2 m/s 769 mmHg 81%
    05:00 +12°C° 0 mm 2 m/s 769 mmHg 81%
    06:00 +13°C° 0 mm 2 m/s 769 mmHg 80%
    07:00 +14°C° 0 mm 3 m/s 769 mmHg 74%
    08:00 +17°C° 0 mm 3 m/s 769 mmHg 68%
    09:00 +18°C° 0 mm 4 m/s 769 mmHg 63%
    10:00 +19°C° 0 mm 4 m/s 768 mmHg 59%
    11:00 +20°C° 0 mm 4 m/s 768 mmHg 56%
    12:00 +20°C° 0 mm 5 m/s 768 mmHg 52%
    13:00 +20°C° 0 mm 4 m/s 767 mmHg 52%
    14:00 +20°C° 0 mm 4 m/s 767 mmHg 51%
    15:00 +20°C° 0 mm 4 m/s 767 mmHg 51%
    16:00 +19°C° 0 mm 4 m/s 767 mmHg 54%
    17:00 +18°C° 0 mm 4 m/s 766 mmHg 57%
    18:00 +17°C° 0 mm 4 m/s 766 mmHg 61%
    19:00 +16°C° 0 mm 3 m/s 766 mmHg 65%
    20:00 +13°C° 0 mm 3 m/s 766 mmHg 69%
    21:00 +11°C° 0 mm 3 m/s 766 mmHg 73%
    22:00 +11°C° 0 mm 3 m/s 766 mmHg 76%
    23:00 +10°C° 0 mm 3 m/s 766 mmHg 79%

    30 Mai, Samedi

    Heure Température Précipitation Vent Pression Humidité
    00:00 +10°C° 0 mm 2 m/s 766 mmHg 83%
    01:00 +10°C° 0 mm 2 m/s 766 mmHg 85%
    02:00 +10°C° 0 mm 2 m/s 766 mmHg 88%
    03:00 +9°C° 0 mm 2 m/s 766 mmHg 90%
    04:00 +10°C° 0 mm 2 m/s 766 mmHg 89%
    05:00 +12°C° 0 mm 2 m/s 766 mmHg 87%
    06:00 +13°C° 0 mm 2 m/s 766 mmHg 86%
    07:00 +15°C° 0 mm 2 m/s 766 mmHg 80%
    08:00 +17°C° 0 mm 3 m/s 766 mmHg 73%
    09:00 +19°C° 0 mm 3 m/s 766 mmHg 67%
    10:00 +19°C° 0 mm 3 m/s 766 mmHg 65%
    11:00 +20°C° 0 mm 4 m/s 766 mmHg 63%
    12:00 +20°C° 0 mm 4 m/s 766 mmHg 61%
    13:00 +20°C° 0 mm 4 m/s 765 mmHg 62%
    14:00 +20°C° 0 mm 4 m/s 765 mmHg 62%
    15:00 +20°C° 0 mm 3 m/s 765 mmHg 62%
    16:00 +19°C° 0 mm 3 m/s 765 mmHg 65%
    17:00 +19°C° 0 mm 3 m/s 764 mmHg 68%
    18:00 +18°C° 0 mm 3 m/s 764 mmHg 71%
    19:00 +16°C° 0 mm 3 m/s 764 mmHg 77%
    20:00 +14°C° 0 mm 3 m/s 765 mmHg 82%
    21:00 +12°C° 0 mm 3 m/s 765 mmHg 88%
    22:00 +11°C° 0 mm 3 m/s 765 mmHg 89%
    23:00 +12°C° 0 mm 2 m/s 765 mmHg 90%

    31 Mai, Dimanche

    Heure Température Précipitation Vent Pression Humidité
    00:00 +10°C° 0 mm 2 m/s 764 mmHg 91%
    01:00 +10°C° 0 mm 2 m/s 764 mmHg 91%
    02:00 +10°C° 0 mm 2 m/s 764 mmHg 91%
    03:00 +10°C° 0 mm 2 m/s 764 mmHg 91%
    04:00 +10°C° 0 mm 2 m/s 764 mmHg 90%
    05:00 +12°C° 0 mm 2 m/s 764 mmHg 89%
    06:00 +13°C° 0 mm 2 m/s 764 mmHg 88%
    07:00 +14°C° 0 mm 3 m/s 764 mmHg 82%
    08:00 +17°C° 0 mm 3 m/s 764 mmHg 75%
    09:00 +19°C° 0 mm 3 m/s 764 mmHg 68%
    10:00 +20°C° 0 mm 3 m/s 764 mmHg 65%
    11:00 +21°C° 0 mm 3 m/s 764 mmHg 61%
    12:00 +21°C° 0 mm 4 m/s 763 mmHg 58%
    13:00 +21°C° 0 mm 4 m/s 763 mmHg 58%
    14:00 +21°C° 0 mm 4 m/s 763 mmHg 59%
    15:00 +21°C° 0 mm 4 m/s 763 mmHg 59%
    16:00 +20°C° 0 mm 4 m/s 762 mmHg 63%
    17:00 +19°C° 0 mm 3 m/s 762 mmHg 66%
    18:00 +19°C° 0 mm 3 m/s 762 mmHg 70%
    19:00 +17°C° 0 mm 3 m/s 762 mmHg 73%
    20:00 +16°C° 0 mm 3 m/s 762 mmHg 77%
    21:00 +13°C° 0 mm 3 m/s 762 mmHg 81%
    22:00 +13°C° 0 mm 3 m/s 762 mmHg 82%
    23:00 +12°C° 0 mm 3 m/s 762 mmHg 82%
    Voir plus